Weather History for Chicopee, MA

Change the Weather History Date:

Sunday, March 10, 2013

  Actual Average Record
Temperature  
Mean Temperature 37 °F -  
Max Temperature 52 °F 39 °F 66 °F (2006)
Min Temperature 22 °F 23 °F 1 °F (2005)
Degree Days  
Heating Degree Days 28    
Moisture  
Dew Point 28 °F    
Average Humidity 71    
Maximum Humidity 99    
Minimum Humidity 40    
Precipitation  
Precipitation 0.00 in - - ()
Sea Level Pressure  
Sea Level Pressure 30.34 in    
Wind  
Wind Speed 4 mph (SSE)    
Max Wind Speed 13 mph    
Max Gust Speed -    
Visibility 10 miles    
Events      
Averages and records for this station are not official NWS values.
T = Trace of Precipitation, MM = Missing Value Source: NWS Daily Summary

Daily Weather History Graph

Daily Weather History Graph

Search for Another Location

Airport:

Trip Planner

Search our weather history database for the weather conditions in past years. The results will help you decide how hot, cold, wet, or windy it might be!

Date:

Astronomy

Mar. 10, 2013 Rise Set
Actual Time 7:10 AM EDT 6:51 PM EDT
Civil Twilight 6:42 AM EDT 7:19 PM EDT
Nautical Twilight 6:09 AM EDT 7:51 PM EDT
Astronomical Twilight 5:37 AM EDT 8:24 PM EDT
Moon 6:09 AM EDT (3/10) 5:55 PM EDT (3/10)
Length of Visible Light 12h 36m
Length of Day
11h 40m
Waning Crescent, 2% of the Moon is Illuminated
Mar 10
Waning Crescent
Mar 11
New
Mar 19
First Quarter
Mar 27
Full
Apr 3
Last Quarter

Hourly Weather History & Observations

Time (EDT) Temp. Windchill Dew Point Humidity Pressure Visibility Wind Dir Wind Speed Gust Speed Precip Events Conditions
12:55 AM 22.8 °F 18.2 °F 21.9 °F 96% 30.36 in 10.0 mi NE 3.5 mph - N/A   Clear
1:55 AM 24.8 °F - 22.8 °F 92% 30.37 in 10.0 mi Calm Calm - N/A   Clear
3:55 AM 23.7 °F 19.3 °F 23.2 °F 98% 30.36 in 10.0 mi NE 3.5 mph - N/A   Clear
4:55 AM 24.8 °F 20.5 °F 24.3 °F 98% 30.36 in 10.0 mi ENE 3.5 mph - N/A   Clear
5:55 AM 23.2 °F - 22.3 °F 96% 30.37 in 10.0 mi Calm Calm - N/A   Clear
6:55 AM 22.1 °F - 21.7 °F 99% 30.39 in 10.0 mi Calm Calm - N/A   Clear
7:55 AM 22.6 °F - 22.1 °F 98% 30.39 in 10.0 mi Calm Calm - N/A   Clear
8:55 AM 29.5 °F - 27.7 °F 93% 30.40 in 10.0 mi Calm Calm - N/A   Clear
9:55 AM 35.2 °F - 28.4 °F 76% 30.41 in 10.0 mi Calm Calm - N/A   Clear
10:55 AM 40.3 °F 37.1 °F 28.2 °F 62% 30.39 in 10.0 mi NE 4.6 mph - N/A   Clear
11:55 AM 43.0 °F 38.8 °F 28.8 °F 57% 30.37 in 10.0 mi Variable 6.9 mph - N/A   Clear
12:55 PM 45.5 °F - 28.4 °F 51% 30.36 in 10.0 mi Calm Calm - N/A   Clear
1:55 PM 48.7 °F - 28.9 °F 46% 30.34 in 10.0 mi West 4.6 mph - N/A   Clear
2:55 PM 51.8 °F - 28.8 °F 41% 30.31 in 10.0 mi Calm Calm - N/A   Clear
3:55 PM 52.9 °F - 29.1 °F 40% 30.30 in 10.0 mi SSW 8.1 mph - N/A   Clear
4:55 PM 52.9 °F - 28.8 °F 40% 30.29 in 10.0 mi SSE 10.4 mph - N/A   Clear
5:55 PM 50.0 °F - 28.6 °F 44% 30.28 in 10.0 mi South 9.2 mph - N/A   Partly Cloudy
6:55 PM 47.7 °F - 29.5 °F 49% 30.29 in 10.0 mi South 9.2 mph - N/A   Overcast
7:55 PM 46.4 °F 41.1 °F 32.2 °F 58% 30.30 in 10.0 mi SSW 11.5 mph - N/A   Overcast
8:55 PM 43.0 °F 36.4 °F 32.4 °F 66% 30.30 in 10.0 mi South 12.7 mph - N/A   Overcast
9:55 PM 41.0 °F 34.3 °F 32.2 °F 71% 30.31 in 10.0 mi South 11.5 mph - N/A   Overcast
10:55 PM 38.8 °F 31.2 °F 31.8 °F 76% 30.30 in 10.0 mi South 12.7 mph - N/A   Partly Cloudy
11:55 PM 37.6 °F 31.0 °F 31.8 °F 80% 30.31 in 10.0 mi South 9.2 mph - N/A   Partly Cloudy
12:55 AM 37.0 °F 28.9 °F 32.4 °F 83% 30.30 in 10.0 mi South 12.7 mph - N/A   Mostly Cloudy